EHI
0 0 0 0 0 0 0 0 0 1 2 4 6 7 5 6 7 11 14 16 19 22 21 19 21 23 25 25 25 23 21 18 15 13 12 9 7 4 3 4 5 5 4 4
0 0 0 0 0 0 0 0 0 1 3 4 5 5 5 5 7 9 14 17 20 20 19 18 18 20 23 24 23 20 18 16 15 14 11 9 8 6 5 6 6 5 4 4
0 0 0 0 0 0 0 0 1 2 3 3 3 3 3 4 5 8 13 17 19 17 16 17 17 17 19 21 19 16 14 13 14 13 12 11 10 8 7 6 6 5 4 3
0 0 0 0 0 0 0 0 1 2 2 1 1 1 2 2 3 7 11 14 15 15 14 16 17 16 16 16 14 12 10 10 12 13 13 14 12 10 8 7 6 6 4 4
0 0 0 0 0 0 0 0 0 1 1 0 0 0 1 1 1 3 7 10 12 13 14 16 16 14 14 13 10 8 8 8 9 11 13 13 12 10 8 7 6 5 5 6
0 0 0 0 0 0 0 0 0 0 0 0 0 0 0 0 0 1 4 8 11 13 14 15 14 13 11 8 5 5 7 7 7 9 11 12 11 10 8 8 6 5 6 7
0 0 0 0 0 0 0 0 0 0 0 0 1 1 0 0 0 1 2 6 10 13 14 14 12 11 8 5 2 4 6 7 6 7 8 10 10 9 9 8 8 7 7 8
0 0 0 0 0 0 0 0 0 0 0 1 2 2 1 1 0 0 1 4 9 12 13 13 11 8 5 3 2 3 6 6 6 5 6 8 9 10 9 8 8 8 8 8
0 0 0 0 0 0 0 0 0 0 0 1 2 3 2 1 0 0 1 5 8 10 11 10 8 5 4 3 2 2 3 4 4 4 4 6 8 9 9 7 7 8 8 8
0 0 0 0 0 0 0 0 0 0 0 1 2 2 2 1 0 0 2 4 6 8 8 5 3 2 3 3 2 1 1 1 2 3 3 5 8 9 9 7 5 5 7 9
0 0 0 0 0 0 0 0 0 0 0 0 1 1 1 0 0 1 1 2 3 3 4 3 2 2 3 3 2 2 1 1 1 2 3 6 8 9 9 7 5 4 5 7
0 0 0 0 0 0 0 0 0 0 0 0 0 0 0 0 0 1 1 1 1 2 3 4 3 4 5 4 3 3 1 1 0 1 3 6 7 7 6 6 5 4 4 4
0 0 0 0 0 0 0 0 0 0 0 0 0 0 0 0 0 0 1 2 3 4 5 5 4 4 5 4 4 3 1 0 0 1 3 4 4 4 4 4 4 3 3 3
0 0 0 0 0 0 0 0 0 0 0 0 0 0 0 0 0 0 1 3 5 6 6 6 5 4 3 4 5 3 1 0 1 1 3 3 3 3 2 2 3 3 3 2
0 0 0 0 0 0 0 0 0 0 0 0 0 0 0 0 0 0 2 4 6 6 5 6 5 4 4 4 5 4 1 1 2 3 3 3 3 2 1 1 2 3 3 3
0 0 0 0 0 0 0 0 0 0 0 0 0 0 0 0 0 0 2 5 5 4 4 5 6 6 5 5 4 3 2 2 3 4 4 3 1 1 1 2 3 3 4 5
0 0 0 0 0 0 0 0 0 0 0 0 0 0 0 0 0 1 3 4 4 4 4 5 6 7 5 3 1 1 2 3 4 4 3 2 1 1 2 3 3 3 4 6
0 0 0 0 0 0 0 0 0 0 0 0 0 0 0 0 0 1 3 4 4 5 5 5 5 5 3 1 0 0 2 3 3 3 2 1 0 1 2 2 2 3 4 4
0 0 0 0 0 0 0 0 0 0 0 0 0 0 1 1 1 1 2 3 3 4 3 3 3 2 1 0 0 1 2 3 3 3 1 0 0 0 1 1 1 1 1 2
0 0 0 0 0 0 0 0 0 0 0 0 0 0 0 0 0 0 1 2 1 1 1 1 1 1 0 0 0 2 3 3 3 2 1 0 0 0 0 0 0 0 0 0
0 0 0 0 0 0 0 0 0 0 0 0 0 0 0 0 0 0 0 0 0 0 0 0 0 0 0 0 0 1 2 3 3 2 1 0 0 0 0 0 0 0 0 1
0 0 0 0 0 0 0 0 0 0 0 0 0 0 0 0 0 0 0 0 0 0 0 0 0 0 0 0 0 0 1 2 3 2 0 0 0 0 0 0 0 1 1 2
0 0 0 0 0 0 0 0 0 0 0 0 0 0 0 0 0 0 0 0 0 0 0 1 1 1 1 0 0 0 0 2 4 3 1 0 1 1 1 1 1 2 3 3
0 0 0 0 0 0 0 0 0 0 0 0 0 0 0 0 0 0 0 0 0 0 1 2 2 2 2 1 1 0 1 2 4 3 1 1 2 2 2 2 3 3 3 3
0 0 0 0 0 0 0 0 0 0 0 0 0 0 0 0 0 0 0 0 0 0 1 2 3 3 3 3 2 2 2 3 4 3 1 1 2 3 3 3 3 3 3 2
0 0 0 0 0 0 0 0 0 0 0 0 0 0 0 0 0 0 0 0 0 0 1 2 3 3 3 3 3 3 3 4 4 2 0 0 1 2 3 3 3 3 2 1
Wind_Speed
3 4 2 5 6 4 3 2 3 5 2 1 1 2 3 0 1 2 2 3 4 4 2 3 3 4 4 4 5 5 5 3 3 3 2 2 1 1 0 0 1 2 2 2
4 3 6 4 4 3 3 2 3 4 1 2 1 2 3 1 1 2 4 4 5 4 3 2 3 4 4 4 3 3 4 4 3 2 2 2 1 1 0 0 0 1 1 2
5 5 2 3 2 2 3 5 4 4 2 2 1 4 3 2 2 2 1 2 4 6 6 4 4 4 4 4 3 3 3 3 3 3 2 2 2 2 1 1 1 1 0 2
4 4 1 1 2 4 4 5 5 3 1 2 1 2 5 2 3 1 1 2 3 4 4 5 5 4 4 3 3 3 3 3 2 3 3 3 3 2 2 1 1 0 0 1
4 2 2 3 4 5 5 1 2 2 3 1 2 2 6 2 2 3 3 3 3 4 5 5 5 5 4 4 3 3 3 2 2 2 3 3 2 1 0 0 0 0 1 0
4 2 3 5 3 4 3 5 5 5 5 0 3 3 5 3 4 3 2 2 3 4 5 5 4 4 4 4 3 3 4 2 2 2 2 3 3 2 1 1 0 0 0 0
4 3 2 1 1 2 4 6 4 4 4 4 2 2 6 5 4 4 4 3 3 4 5 5 5 5 4 3 3 3 4 3 1 1 1 2 2 2 2 1 1 1 1 1
1 5 3 1 4 4 3 7 7 5 4 4 2 3 6 3 2 1 1 2 3 4 4 4 5 5 4 4 3 3 3 2 1 1 1 1 1 1 1 1 1 1 2 2
4 5 4 2 1 6 4 2 5 7 2 0 3 4 6 2 1 1 2 2 3 4 4 4 4 4 4 3 3 3 2 2 1 1 1 1 1 1 1 1 1 1 1 1
6 3 4 2 4 4 4 7 5 6 5 2 3 3 5 4 3 1 1 2 2 3 4 4 4 4 4 3 3 3 2 2 2 1 1 1 0 1 1 1 1 0 1 1
4 3 4 3 1 2 3 4 5 4 4 6 3 6 5 6 5 4 3 3 3 4 4 4 3 3 3 2 2 2 1 1 1 1 1 1 0 0 0 0 1 1 1 1
3 5 1 4 3 1 3 4 6 5 3 4 4 7 3 2 3 3 3 3 2 3 3 3 3 2 2 2 2 2 2 1 1 1 1 1 1 0 0 1 1 1 1 1
4 5 2 5 5 2 2 2 3 5 5 4 4 6 2 1 1 2 3 3 2 2 2 3 3 2 2 1 2 2 2 2 1 1 1 0 1 1 2 2 2 1 2 2
5 4 6 7 7 3 1 2 4 5 4 4 6 6 3 2 1 1 2 2 2 3 3 2 2 1 1 1 1 1 2 2 1 1 1 2 2 2 3 2 2 2 2 2
4 3 3 3 3 2 3 3 5 5 6 7 6 6 6 5 4 3 3 2 2 2 3 3 2 2 1 1 1 1 2 2 2 2 2 3 3 3 2 2 2 2 2 3
3 3 1 1 1 1 0 1 3 3 3 4 3 5 4 1 2 2 2 3 3 3 3 3 3 2 2 2 2 1 1 2 2 2 3 3 3 3 3 3 3 2 3 3
1 4 3 2 2 2 2 3 3 3 3 5 6 6 2 2 4 4 4 3 4 4 3 4 4 4 3 3 3 2 2 2 2 3 3 3 3 3 3 4 3 3 3 3
4 4 3 2 1 4 6 2 2 3 1 2 3 3 3 4 2 2 4 4 4 3 4 4 3 3 2 2 2 1 1 1 2 3 3 3 3 3 3 3 3 3 3 3
3 6 4 3 2 4 3 1 1 2 2 2 3 2 1 2 2 2 3 4 4 3 3 3 3 3 2 2 2 1 1 1 2 2 3 3 3 3 3 3 3 3 2 3
4 4 5 4 3 5 5 3 1 2 3 3 4 4 3 3 1 4 2 2 1 1 2 2 2 2 2 2 1 2 1 2 3 3 3 3 3 3 3 3 3 2 2 3
2 3 3 3 3 5 4 3 1 3 6 2 3 4 4 4 5 3 1 1 1 1 1 2 2 1 1 1 1 1 2 3 4 3 2 2 2 3 3 2 2 2 2 2
4 3 3 3 3 6 2 2 3 5 2 1 2 3 3 3 2 1 1 1 1 1 1 1 1 0 1 1 2 2 3 4 2 2 1 2 2 2 1 1 1 1 1 2
3 5 5 6 6 4 2 2 2 2 1 1 2 2 3 2 2 1 1 1 1 1 1 1 1 1 1 1 2 3 4 3 2 1 2 2 2 1 1 1 1 1 1 1
2 1 2 1 4 3 2 1 1 1 1 1 1 2 3 3 2 2 1 1 1 1 1 1 1 1 2 3 3 4 3 2 2 2 2 2 1 1 1 1 1 1 1 1
3 2 1 2 4 3 3 2 1 1 1 1 1 1 2 3 2 2 2 3 3 2 1 2 2 3 3 3 3 3 2 2 2 2 2 1 1 1 1 1 1 2 2 2
4 5 5 6 6 4 4 3 1 1 1 1 0 1 1 1 2 2 3 3 2 2 2 2 2 2 3 2 3 3 2 2 2 2 2 1 1 1 1 1 2 2 2 2
Wind_Direction
65 78 200 211 193 185 178 196 257 264 264 102 198 277 292 273 161 179 185 172 159 164 142 136 153 158 145 143 146 149 146 140 131 136 141 146 166 177 193 203 174 163 160 156
47 265 231 196 179 171 175 219 266 295 346 147 132 314 305 69 201 192 178 172 168 144 112 122 131 139 143 147 157 150 149 146 141 145 153 154 141 143 172 351 33 101 147 165
187 240 191 163 164 181 224 202 222 242 341 39 84 337 337 350 19 43 87 155 161 162 161 154 144 151 139 138 163 165 150 141 135 125 105 88 73 53 34 10 338 325 160 169
228 257 196 185 224 180 253 229 206 207 137 291 83 281 297 324 352 339 237 165 179 172 163 161 155 149 144 142 130 126 131 135 138 138 138 135 140 162 206 223 236 310 22 159
243 225 194 229 230 181 220 210 168 167 152 38 17 146 286 339 296 268 251 206 196 177 164 157 152 145 130 120 117 113 102 92 111 137 146 139 141 170 187 98 60 359 345 331
248 250 208 216 228 181 160 72 54 50 76 360 251 164 272 253 238 259 245 212 195 166 146 133 121 113 110 106 107 112 109 88 79 120 144 150 155 151 115 88 13 289 311 308
318 307 285 180 59 26 89 90 39 5 16 254 270 167 244 254 238 224 222 207 184 159 147 142 136 132 136 134 132 131 126 115 105 112 150 165 163 162 174 193 211 233 250 252
225 294 278 206 177 181 164 138 153 191 215 266 332 228 250 274 283 244 185 165 143 149 150 151 155 152 156 155 145 138 132 134 133 127 138 162 157 163 186 203 202 221 238 241
181 258 293 272 195 141 135 153 159 134 142 168 281 288 298 307 360 64 109 127 145 154 156 161 159 156 158 161 170 160 160 159 165 151 123 98 133 156 176 186 196 226 255 250
161 237 296 309 58 31 132 141 100 116 144 227 274 258 246 259 265 258 166 163 161 151 155 158 162 177 180 175 167 147 161 175 183 173 173 168 173 175 172 137 147 188 232 236
139 168 308 19 113 188 87 83 98 111 147 158 222 262 226 216 219 211 210 196 178 173 174 172 175 176 164 143 142 137 149 145 149 183 186 177 221 177 111 173 214 215 224 214
139 127 247 274 271 216 140 149 140 147 199 167 176 262 281 197 197 188 191 182 173 176 173 162 153 140 137 151 146 138 153 162 179 191 194 208 248 254 243 260 255 225 223 230
131 114 82 342 338 5 81 121 132 123 118 149 169 257 317 59 100 150 163 166 166 169 163 144 140 148 159 161 156 153 170 189 201 181 189 257 277 258 249 250 256 249 235 230
115 121 164 197 220 208 205 178 154 129 143 188 215 236 273 274 227 190 168 171 168 170 177 166 161 166 159 153 175 188 204 197 197 194 211 238 250 247 249 244 238 241 242 239
103 141 194 225 227 187 209 211 183 177 182 185 221 221 233 224 212 203 183 166 164 176 176 181 190 191 169 171 206 213 227 218 202 208 225 239 246 246 249 253 247 241 241 242
72 134 127 329 292 153 199 252 195 193 183 194 201 243 243 185 144 170 183 179 192 208 205 196 191 186 196 202 208 209 231 242 215 222 240 247 242 241 246 248 251 246 244 243
94 127 118 242 301 57 260 237 202 198 203 180 203 229 182 174 197 197 197 202 211 215 211 204 201 195 201 202 197 202 213 229 226 235 247 249 244 247 251 251 248 244 239 233
140 118 124 147 87 220 244 262 177 168 209 189 198 214 199 201 212 217 201 195 217 217 212 212 203 199 201 189 183 190 197 236 248 252 255 256 253 258 258 250 250 248 236 231
147 136 123 127 176 266 289 278 167 176 257 205 185 190 141 117 49 315 211 191 207 216 219 212 199 188 188 195 179 150 197 251 256 265 269 264 255 254 255 254 254 248 234 236
59 94 116 129 161 228 250 286 276 119 272 243 179 180 173 126 130 257 237 210 228 230 195 185 174 158 174 195 155 153 207 243 255 260 267 268 259 247 247 252 257 254 229 232
57 58 110 149 200 257 267 297 75 157 246 259 188 188 178 186 209 227 217 221 202 193 170 137 136 155 184 171 160 198 226 248 258 265 271 272 264 257 248 253 258 248 235 235
171 156 174 146 180 251 280 105 170 224 261 216 194 202 196 216 230 211 202 197 173 159 123 118 126 179 169 156 174 237 256 264 275 275 279 283 274 272 274 259 264 249 221 224
195 190 185 185 208 244 248 211 239 185 195 230 195 208 182 190 223 224 219 201 186 182 177 171 173 211 251 211 196 228 257 269 276 284 280 280 283 288 295 257 255 267 232 225
282 131 144 247 273 274 277 286 301 192 202 232 190 179 168 184 207 209 208 213 229 226 205 216 194 217 247 249 238 236 251 249 234 250 269 272 270 302 336 319 260 244 233 230
239 173 167 263 281 314 310 289 287 344 56 72 28 159 178 181 214 214 214 218 219 228 221 203 213 227 245 256 261 255 235 214 223 246 260 262 252 257 291 295 265 243 250 233
213 185 181 226 229 204 246 257 220 194 243 225 99 12 359 186 213 212 217 220 222 227 219 212 226 237 250 254 265 265 238 200 204 238 254 252 254 250 252 275 301 298 267 291